Regional Weather Roundup
Issued by NWS

Home | Current Version | Previous Version | Graphics & Text | Print | Product List | Glossary On
Versions: 1 2 3 4 5 6 7 8 9 10 11 12 13 14 15 16 17 18 19 20 21 22 23 24 25 26 27 28 29 30 31 32 33 34 35 36 37 38 39 40 41 42 43 44 45 46 47 48 49 50
000
ASUS43 KMKX 221810
RWRWI

WISCONSIN REGIONAL WEATHER ROUNDUP
NATIONAL WEATHER SERVICE MILWAUKEE/SULLIVAN WI
100 PM CDT SUN APR 22 2018

NOTE: "FAIR" INDICATES FEW OR NO CLOUDS BELOW 12,000 FEET WITH NO
SIGNIFICANT WEATHER AND/OR OBSTRUCTIONS TO VISIBILITY.

WIZ001-002-006>008-014>016-023>028-221900-
NORTHWEST WISCONSIN

CITY           SKY/WX    TMP DP  RH WIND       PRES   REMARKS
SUPERIOR ARPT  FAIR      57  29  35 NE5       30.33F
6HR MIN TEMP:  25; 6HR MAX TEMP:  57;

ASHLAND        FAIR      58  24  27 S7        30.33F
6HR MIN TEMP:  30; 6HR MAX TEMP:  59;

HAYWARD        FAIR      58  28  32 S9        30.34F
6HR MIN TEMP:  27; 6HR MAX TEMP:  58;

SIREN          FAIR      60  29  30 SE9       30.33F
6HR MIN TEMP:  26; 6HR MAX TEMP:  60;

CUMBERLAND     FAIR      52  28  40 CALM      30.35F
RICE LAKE      FAIR      56  31  38 S6        30.37F
6HR MIN TEMP:  28; 6HR MAX TEMP:  56;

CHETEK         FAIR      57  31  38 CALM      30.35F
6HR MIN TEMP:  28; 6HR MAX TEMP:  57;

LADYSMITH      FAIR      58  31  35 SW7       30.37F
6HR MIN TEMP:  31; 6HR MAX TEMP:  58;

EAU CLAIRE     FAIR      60  32  34 S9G25     30.33F
6HR MIN TEMP:  30; 6HR MAX TEMP:  61;

MENOMONIE      FAIR      60  30  32 E6        30.35F
6HR MIN TEMP:  32; 6HR MAX TEMP:  60;

NEW RICHMOND   FAIR      59  32  36 S5        30.34F
6HR MIN TEMP:  31; 6HR MAX TEMP:  59;

OSCEOLA        FAIR      59  33  37 S7        30.37F
6HR MIN TEMP:  30; 6HR MAX TEMP:  59;

$$

WIZ003>005-009-010-017-018-221900-
NORTH CENTRAL WISCONSIN

CITY           SKY/WX    TMP DP  RH WIND       PRES   REMARKS
MANITOWISH WTR FAIR      54  21  27 CALM      30.34F
ARBOR VITAE    FAIR      57  19  23 S9        30.34F
6HR MIN TEMP:  26; 6HR MAX TEMP:  57;

WOODRUFF       FAIR      57  19  23 S9        30.34F
6HR MIN TEMP:  26; 6HR MAX TEMP:  57;

RHINELANDER    FAIR      58  21  24 W5        30.34F
6HR MIN TEMP:  28; 6HR MAX TEMP:  58;

EAGLE RIVER    FAIR      57  11  16 SW8G16    30.34F
6HR MIN TEMP:  24; 6HR MAX TEMP:  58;

LAND O LAKES   FAIR      59  10  14 SW7       30.34F
6HR MIN TEMP:  23; 6HR MAX TEMP:  59;

PHILLIPS       FAIR      56  28  33 S5        30.34F
6HR MIN TEMP:  25; 6HR MAX TEMP:  56;

TOMAHAWK       FAIR      57  19  23 S3        30.36F
6HR MIN TEMP:  24; 6HR MAX TEMP:  57;

MEDFORD        FAIR      53  30  41 S7        30.37S
6HR MIN TEMP:  28; 6HR MAX TEMP:  53;

MERRILL          N/A     58  29  32 S7        30.37F
6HR MIN TEMP:  26; 6HR MAX TEMP:  58;

$$

WIZ029-030-035-036-043>047-221900-
CENTRAL WISCONSIN

CITY           SKY/WX    TMP DP  RH WIND       PRES   REMARKS
WAUSAU         FAIR      57  26  30 W6        30.35F
6HR MIN TEMP:  28; 6HR MAX TEMP:  58;

MOSINEE        MOSUNNY   55  27  33 CALM      30.38F
MARSHFIELD     FAIR      54  30  40 SE8       30.36F
6HR MIN TEMP:  31; 6HR MAX TEMP:  54;

STEVENS POINT  FAIR      53  28  37 SE5       30.38F
6HR MIN TEMP:  26; 6HR MAX TEMP:  53;

WAUPACA        FAIR      59  17  19 CALM      30.38F
6HR MIN TEMP:  31; 6HR MAX TEMP:  59;

WAUTOMA        FAIR      56  19  23 E9        30.37F
6HR MIN TEMP:  31; 6HR MAX TEMP:  56;

WISC RAPIDS    FAIR      57  28  33 E8        30.37F
6HR MIN TEMP:  29; 6HR MAX TEMP:  57;

CAMP DOUGLAS   NOT AVBL
$$

WIZ011>013-019>022-031-037>040-048>050-221900-
NORTHEAST WISCONSIN

CITY           SKY/WX    TMP DP  RH WIND       PRES   REMARKS
ANTIGO         FAIR      54  33  44 S6        30.37F
6HR MIN TEMP:  30; 6HR MAX TEMP:  55;

SHAWANO        FAIR      57  21  25 SE5       30.39F
6HR MIN TEMP:  31; 6HR MAX TEMP:  58;

OCONTO         FAIR      54  18  23 S6        30.40S
6HR MIN TEMP:  28; 6HR MAX TEMP:  54;

STURGEON BAY   FAIR      54  20  26 S7        30.40F
6HR MIN TEMP:  39; 6HR MAX TEMP:  54;

GREEN BAY      FAIR      56  22  26 S3        30.39F
6HR MIN TEMP:  32; 6HR MAX TEMP:  57;

MANITOWOC      FAIR      52  23  32 SE6       30.40F
6HR MIN TEMP:  33; 6HR MAX TEMP:  52;

APPLETON       MOSUNNY   55  12  18 S6        30.38F
CLINTONVILLE   FAIR      55  17  23 CALM      30.39F
6HR MIN TEMP:  28; 6HR MAX TEMP:  55;

OSHKOSH        FAIR      55  26  32 NE6       30.38F
6HR MIN TEMP:  33; 6HR MAX TEMP:  55;

$$

WIZ032>034-041-042-053>061-221900-
SOUTHWEST WISCONSIN

CITY           SKY/WX    TMP DP  RH WIND       PRES   REMARKS
LA CROSSE      FAIR      61  27  27 E12       30.33F
6HR MIN TEMP:  36; 6HR MAX TEMP:  61;

SPARTA         FAIR      59  29  31 E10       30.35F
6HR MIN TEMP:  27; 6HR MAX TEMP:  59;

VIROQUA        FAIR      57  34  41 NE10      30.34S
6HR MIN TEMP:  38; 6HR MAX TEMP:  57;

BOSCOBEL       FAIR      64  25  22 NE8       30.32F
6HR MIN TEMP:  40; 6HR MAX TEMP:  65;

PRAIRIE DU CHI FAIR      62  17  17 E12       30.31F
6HR MIN TEMP:  39; 6HR MAX TEMP:  62;

PLATTEVILLE    FAIR      60  30  32 E10       30.31F
6HR MIN TEMP:  41; 6HR MAX TEMP:  60;

$$

WIZ056-057-062-063-064-067-068-221900-
SOUTH CENTRAL WISCONSIN

CITY           SKY/WX    TMP DP  RH WIND       PRES   REMARKS
REEDSBURG      FAIR      58  24  27 E8        30.34F
6HR MIN TEMP:  32; 6HR MAX TEMP:  58;

BARABOO/DELLS  FAIR      56  21  25 NE8       30.34F
6HR MIN TEMP:  31; 6HR MAX TEMP:  56;

LONE ROCK      FAIR      61  23  23 E8        30.33F
6HR MIN TEMP:  37; 6HR MAX TEMP:  62;

MINERAL POINT  FAIR      63  27  25 E7G16     30.31F
MADISON        PTSUNNY   59  28  30 SE7       30.34F
6HR MIN TEMP:  35; 6HR MAX TEMP:  59;

MIDDLETON      FAIR      60  24  25 E8        30.35S
6HR MIN TEMP:  37; 6HR MAX TEMP:  60;

WATERTOWN      FAIR      56  29  36 E7        30.35F
6HR MIN TEMP:  32; 6HR MAX TEMP:  56;

MONROE         FAIR      59  28  31 SE7       30.31F
JANESVILLE     MOSUNNY   63  27  25 E12G17    30.33F
$$

WIZ051-052-058>065-066-070>072-221900-
SOUTHEAST WISCONSIN

CITY           SKY/WX    TMP DP  RH WIND       PRES   REMARKS
MILWAUKEE      PTSUNNY   51  29  42 E5        30.38F
6HR MIN TEMP:  36; 6HR MAX TEMP:  51;

WAUKESHA       SUNNY     54  27  35 E14       30.37F
MILWAUKEE/TIMM SUNNY     52  16  24 E7        30.37F
RACINE         FAIR      53  29  39 VRB7      30.38F
6HR MIN TEMP:  38; 6HR MAX TEMP:  54;

BURLINGTON     FAIR      60  27  28 E8        30.34F
KENOSHA        FAIR      57  26  30 E12       30.36F
6HR MIN TEMP:  40; 6HR MAX TEMP:  57;

FOND DU LAC    FAIR      56  21  25 CALM      30.36F
6HR MIN TEMP:  32; 6HR MAX TEMP:  56; 6HR PCP: TRACE;

SHEBOYGAN      FAIR      55  30  38 E8        30.38F
6HR MIN TEMP:  31; 6HR MAX TEMP:  57;

WEST BEND      FAIR      59  23  25 E8        30.36F
JUNEAU         FAIR      55  27  34 E5        30.37F
6HR MIN TEMP:  33; 6HR MAX TEMP:  55;

$$

LSZ147-162-221900-
LAKE SUPERIOR

STATION/POSITION TIME  TEMP    WIND        PRES    WAVE
                       AIR SEA DIR/SP/G            HT/PER
                 (UTC) (F)     (DEG/KT/KT) (MB)    (FT/S)
DEVILS ISLAND    1800   38      30/  3/  4 1028.5F
SAXON HARBOR     1740   41     340/  2/  3 1027.1F
$$

LMZ867-665-643>646-221900-
LAKE MICHIGAN

STATION/POSITION TIME  TEMP    WIND        PRES    WAVE
                       AIR SEA DIR/SP/G            HT/PER
                 (UTC) (F)     (DEG/KT/KT) (MB)    (FT/S)
NORTHPORT PIER   1740   42                 1029.5F
KEWAUNEE LAKESHO 1742   46      90/  2/  3



USA.gov is the U.S. government's official web portal to all federal, state and local government web resources and services.